VK3GY-13 Weather Reports


Display with metric or nautical units.
time (UTC)temp
F
wind
direction
speed
MPH
gust
MPH
rain 1hr
in
rain 24hr
in
rain mn
in
humidity
%
barometer
mb
20260902150010 50 346 2.0 6.0 0.00 0.00 0.00 77 1009.0
20260902145011 50 313 3.0 5.0 0.00 0.00 0.00 76 1009.0
20260902144012 50 308 2.0 5.0 0.00 0.00 0.00 76 1009.0
20260902143011 50 313 3.0 8.0 0.00 0.00 0.00 76 1009.1
20260902142011 50 315 5.0 10.0 0.00 0.00 0.00 77 1009.1
20260902140011 50 327 4.0 9.0 0.00 0.00 0.00 79 1009.2
20260902135011 50 344 3.0 9.0 0.00 0.00 0.00 80 1009.3
20260902134011 50 339 3.0 8.0 0.00 0.00 0.00 80 1009.4
20260902133012 51 336 2.0 6.0 0.00 0.00 0.00 80 1009.5
20260902132011 51 338 3.0 8.0 0.00 0.00 0.00 80 1009.7
20260902130011 52 259 2.0 6.0 0.00 0.00 0.00 80 1009.9
20260902125011 52 254 2.0 3.0 0.00 0.00 0.00 80 1010.0
20260902124011 52 254 2.0 5.0 0.00 0.00 0.00 80 1010.0
20260902123011 52 250 2.0 5.0 0.00 0.01 0.00 79 1010.1
20260902122011 52 248 1.0 3.0 0.00 0.01 0.00 79 1010.3
20260902120013 53 247 0.0 2.0 0.00 0.01 0.00 79 1010.4
20260902115011 53 247 0.0 3.0 0.00 0.01 0.00 79 1010.4
20260902113013 53 247 2.0 3.0 0.00 0.02 0.00 79 1010.7
20260902112012 53 246 2.0 3.0 0.00 0.02 0.00 79 1010.6
20260902110010 53 246 2.0 3.0 0.00 0.02 0.00 78 1010.7
20260902105011 53 246 2.0 3.0 0.00 0.02 0.00 78 1010.7
20260902104011 52 246 1.0 3.0 0.00 0.02 0.00 78 1010.8
20260902103011 52 246 1.0 3.0 0.00 0.02 0.00 78 1010.9
20260902101011 52 246 1.0 2.0 0.00 0.02 0.00 77 1010.7
20260902100011 52 246 1.0 2.0 0.00 0.03 0.00 77 1010.6
20260902095010 52 246 1.0 2.0 0.00 0.03 0.00 76 1010.5
20260902094011 52 246 0.0 2.0 0.00 0.03 0.00 76 1010.3
20260902093011 52 246 0.0 2.0 0.00 0.03 0.00 75 1010.2
20260902092011 53 246 0.0 2.0 0.00 0.03 0.00 75 1010.2
20260902091010 53 246 0.0 0.0 0.00 0.03 0.00 74 1010.2
20260902085011 53 246 1.0 3.0 0.00 0.03 0.00 73 1010.1
20260902084011 54 246 1.0 3.0 0.00 0.03 0.00 73 1010.1
20260902083011 54 246 2.0 5.0 0.00 0.03 0.00 73 1010.2
20260902081011 55 237 3.0 6.0 0.00 0.03 0.00 72 1010.2
20260902080012 55 236 2.0 5.0 0.00 0.03 0.00 71 1010.2
20260902075010 56 236 2.0 5.0 0.00 0.03 0.00 70 1010.2
20260902074011 57 235 2.0 5.0 0.00 0.03 0.00 69 1010.1
20260902073011 57 236 2.0 5.0 0.00 0.03 0.00 69 1010.1
20260902072010 58 235 2.0 6.0 0.00 0.03 0.00 67 1010.0
20260902071011 59 237 3.0 6.0 0.00 0.03 0.00 66 1010.0
20260902070011 59 243 3.0 8.0 0.00 0.03 0.00 66 1010.1
20260902065011 60 230 4.0 10.0 0.00 0.03 0.00 65 1010.1
20260902064011 60 247 3.0 7.0 0.00 0.03 0.00 63 1010.3
20260902063011 60 244 3.0 12.0 0.00 0.03 0.00 64 1010.4
20260902062011 60 239 7.0 12.0 0.00 0.03 0.00 62 1010.6
20260902061011 61 243 7.0 12.0 0.00 0.03 0.00 61 1010.6
20260902060010 61 246 7.0 12.0 0.00 0.03 0.00 60 1010.7
20260902054011 61 245 6.0 14.0 0.00 0.03 0.00 61 1010.9
20260902053010 61 237 7.0 14.0 0.00 0.03 0.00 62 1010.9
20260902051011 62 252 6.0 12.0 0.00 0.03 0.00 62 1011.1
20260902050011 62 234 6.0 14.0 0.00 0.03 0.00 62 1011.2
20260902044011 62 236 8.0 15.0 0.00 0.03 0.00 60 1011.1
20260902043011 62 231 6.0 14.0 0.00 0.03 0.00 61 1011.1
20260902042011 62 250 8.0 15.0 0.00 0.03 0.00 61 1011.1
20260902041011 62 264 6.0 14.0 0.00 0.03 0.00 61 1011.1
20260902040011 62 241 7.0 13.0 0.00 0.03 0.00 61 1011.3
20260902035011 61 273 6.0 13.0 0.00 0.03 0.00 60 1011.5
20260902032011 60 269 7.0 15.0 0.00 0.03 0.00 64 1012.1
20260902031011 60 262 6.0 14.0 0.00 0.03 0.00 62 1012.3
20260902030011 59 237 7.0 12.0 0.00 0.03 0.00 65 1012.4
20260902025011 59 270 7.0 13.0 0.00 0.03 0.00 64 1012.6
20260902023010 60 267 7.0 16.0 0.00 0.03 0.00 64 1012.9
20260902022010 60 265 7.0 16.0 0.00 0.03 0.00 66 1013.1
20260902020011 60 279 8.0 14.0 0.00 0.03 0.00 67 1013.2
20260902015011 60 268 7.0 14.0 0.00 0.03 0.00 68 1013.2
20260902014010 59 273 6.0 12.0 0.00 0.03 0.00 67 1013.4
20260902013011 58 281 4.0 12.0 0.00 0.03 0.00 68 1013.5
20260902012011 58 284 6.0 12.0 0.00 0.03 0.00 70 1013.7
20260902011010 58 254 5.0 9.0 0.00 0.03 0.00 69 1013.8
20260902010010 57 298 6.0 10.0 0.00 0.03 0.00 68 1013.8
20260902005011 57 278 5.0 10.0 0.00 0.03 0.00 70 1013.9
20260902004011 57 264 6.0 10.0 0.00 0.03 0.00 70 1014.1
20260902003011 57 271 4.0 12.0 0.00 0.03 0.00 69 1014.1
20260902002013 57 258 7.0 12.0 0.00 0.03 0.00 70 1014.2
20260902000010 56 258 6.0 12.0 0.00 0.03 0.00 77 1014.4
20260901235011 56 261 3.0 12.0 0.00 0.03 0.00 78 1014.4
20260901234011 56 271 6.0 12.0 0.00 0.03 0.00 78 1014.3
20260901233011 55 253 4.0 12.0 0.00 0.03 0.00 78 1014.3
20260901232010 55 275 6.0 12.0 0.00 0.03 0.00 79 1014.2
20260901231011 55 278 7.0 12.0 0.00 0.03 0.00 79 1014.3
20260901230010 55 261 5.0 12.0 0.00 0.03 0.00 79 1014.4
20260901225011 55 268 5.0 12.0 0.00 0.03 0.00 79 1014.3
20260901224011 54 249 6.0 12.0 0.00 0.03 0.00 80 1014.1
20260901223011 54 269 6.0 10.0 0.00 0.03 0.00 81 1013.9
20260901222010 54 271 6.0 12.0 0.00 0.03 0.00 82 1013.9
20260901221011 54 276 3.0 10.0 0.00 0.03 0.00 83 1013.8
20260901220010 54 271 5.0 10.0 0.00 0.03 0.00 85 1013.8
20260901215011 54 281 5.0 15.0 0.00 0.03 0.00 86 1013.8
20260901214011 54 271 4.0 12.0 0.00 0.03 0.00 87 1013.7
20260901213012 54 288 4.0 10.0 0.00 0.03 0.00 87 1013.7
20260901212011 54 263 4.0 10.0 0.00 0.03 0.00 88 1013.5
20260901210010 54 269 5.0 9.0 0.00 0.03 0.00 89 1013.2
20260901205011 53 248 4.0 9.0 0.00 0.03 0.00 89 1013.2
20260901203011 54 270 3.0 7.0 0.00 0.03 0.00 90 1012.8
20260901202012 54 265 2.0 5.0 0.00 0.03 0.00 90 1012.6
20260901195011 54 254 1.0 5.0 0.00 0.03 0.00 90 1012.3
20260901193011 54 247 2.0 7.0 0.00 0.03 0.00 90 1012.1
20260901192010 55 248 3.0 9.0 0.00 0.03 0.00 90 1012.0
20260901191011 55 232 3.0 8.0 0.00 0.03 0.00 89 1012.0
20260901185011 55 229 6.0 12.0 0.00 0.03 0.00 89 1011.8
20260901184011 55 234 6.0 14.0 0.00 0.03 0.00 89 1011.6
20260901183011 55 230 5.0 13.0 0.00 0.03 0.00 89 1011.5
20260901182011 56 229 4.0 8.0 0.00 0.03 0.00 89 1011.4
20260901181011 56 231 4.0 8.0 0.00 0.03 0.00 89 1011.3
20260901180010 56 199 4.0 9.0 0.00 0.03 0.00 89 1011.2
20260901174010 56 214 6.0 13.0 0.00 0.03 0.00 88 1011.1
20260901173011 57 212 5.0 13.0 0.00 0.03 0.00 87 1011.1
20260901172013 57 224 7.0 16.0 0.00 0.03 0.00 86 1011.0
20260901170011 58 244 4.0 9.0 0.00 0.03 0.00 85 1010.6
20260901165011 58 230 3.0 8.0 0.00 0.03 0.00 85 1010.5
20260901164011 58 222 3.0 6.0 0.00 0.03 0.00 84 1010.7
20260901163011 58 305 2.0 3.0 0.00 0.03 0.00 84 1010.7
20260901162011 58 305 1.0 3.0 0.00 0.03 0.00 84 1010.7
20260901161011 59 305 1.0 2.0 0.00 0.03 0.00 83 1010.8
20260901160010 59 305 0.0 2.0 0.00 0.03 0.00 83 1011.0
20260901155011 59 305 2.0 3.0 0.00 0.03 0.00 83 1011.0
20260901153011 59 305 2.0 5.0 0.00 0.03 0.00 83 1011.0
20260901152011 59 310 3.0 7.0 0.00 0.03 0.00 82 1011.0